owner,sensor,date,latitude,longitude,vertical_datum,sea_water_practical_salinity,qcFlag 
ENP,ioos.station.NOAA.NDBC:LBRF1:1,2010-10-01T00:00:00Z,25.4840,-81.1330,1.5,13.4,11111222 
ENP,ioos.station.NOAA.NDBC:LBRF1:1,2010-10-01T02:00:00Z,25.4840,-81.1330,1.5,17.8,11111222 
ENP,ioos.station.NOAA.NDBC:LBRF1:1,2010-10-01T03:00:00Z,25.4840,-81.1330,1.5,16.7,11111222 
ENP,ioos.station.NOAA.NDBC:LBRF1:1,2010-10-01T04:00:00Z,25.4840,-81.1330,1.5,10.7,11111222 
ENP,ioos.station.NOAA.NDBC:LBRF1:1,2010-10-01T05:00:00Z,25.4840,-81.1330,1.5,6.6,11111222 
ENP,ioos.station.NOAA.NDBC:LBRF1:1,2010-10-01T06:00:00Z,25.4840,-81.1330,1.5,3.8,11111222 
ENP,ioos.station.NOAA.NDBC:LBRF1:1,2010-10-01T07:00:00Z,25.4840,-81.1330,1.5,2.8,11111222 
ENP,ioos.station.NOAA.NDBC:LBRF1:1,2010-10-01T08:00:00Z,25.4840,-81.1330,1.5,2.2,11111222 
ENP,ioos.station.NOAA.NDBC:LBRF1:1,2010-10-01T09:00:00Z,25.4840,-81.1330,1.5,2.6,11111222 
ENP,ioos.station.NOAA.NDBC:LBRF1:1,2010-10-01T10:00:00Z,25.4840,-81.1330,1.5,14.7,11111222 
ENP,ioos.station.NOAA.NDBC:LBRF1:1,2010-10-01T11:00:00Z,25.4840,-81.1330,1.5,15.7,11111222 
ENP,ioos.station.NOAA.NDBC:LBRF1:1,2010-10-01T12:00:00Z,25.4840,-81.1330,1.5,17.7,11111222 
ENP,ioos.station.NOAA.NDBC:LBRF1:1,2010-10-01T13:00:00Z,25.4840,-81.1330,1.5,19.5,11111222 
ENP,ioos.station.NOAA.NDBC:LBRF1:1,2010-10-01T14:00:00Z,25.4840,-81.1330,1.5,18.8,11111222 
ENP,ioos.station.NOAA.NDBC:LBRF1:1,2010-10-01T15:00:00Z,25.4840,-81.1330,1.5,15.7,11111222 
ENP,ioos.station.NOAA.NDBC:LBRF1:1,2010-10-01T16:00:00Z,25.4840,-81.1330,1.5,9.3,11111222 
ENP,ioos.station.NOAA.NDBC:LBRF1:1,2010-10-01T18:00:00Z,25.4840,-81.1330,1.5,1.8,11111222 
ENP,ioos.station.NOAA.NDBC:LBRF1:1,2010-10-01T19:00:00Z,25.4840,-81.1330,1.5,1.5,11111222 
ENP,ioos.station.NOAA.NDBC:LBRF1:1,2010-10-01T20:00:00Z,25.4840,-81.1330,1.5,1.4,11111222 
ENP,ioos.station.NOAA.NDBC:LBRF1:1,2010-10-01T21:00:00Z,25.4840,-81.1330,1.5,1.3,11111222 
ENP,ioos.station.NOAA.NDBC:LBRF1:1,2010-10-01T22:00:00Z,25.4840,-81.1330,1.5,1.2,11111222 
ENP,ioos.station.NOAA.NDBC:LBRF1:1,2010-10-01T23:00:00Z,25.4840,-81.1330,1.5,1.2,11111222 
ENP,ioos.station.NOAA.NDBC:LBRF1:1,2010-10-02T00:00:00Z,25.4840,-81.1330,1.5,1.3,11111222 
ENP,ioos.station.NOAA.NDBC:LBRF1:1,2010-10-02T01:00:00Z,25.4840,-81.1330,1.5,1.8,11111222 
ENP,ioos.station.NOAA.NDBC:LBRF1:1,2010-10-02T02:00:00Z,25.4840,-81.1330,1.5,3.4,11111222 
ENP,ioos.station.NOAA.NDBC:LBRF1:1,2010-10-02T03:00:00Z,25.4840,-81.1330,1.5,6.5,11111222 
ENP,ioos.station.NOAA.NDBC:LBRF1:1,2010-10-02T04:00:00Z,25.4840,-81.1330,1.5,8.1,11111222 
ENP,ioos.station.NOAA.NDBC:LBRF1:1,2010-10-02T05:00:00Z,25.4840,-81.1330,1.5,4.0,11111222 
ENP,ioos.station.NOAA.NDBC:LBRF1:1,2010-10-02T06:00:00Z,25.4840,-81.1330,1.5,2.2,11111222 
ENP,ioos.station.NOAA.NDBC:LBRF1:1,2010-10-02T07:00:00Z,25.4840,-81.1330,1.5,1.6,11111222 
ENP,ioos.station.NOAA.NDBC:LBRF1:1,2010-10-02T08:00:00Z,25.4840,-81.1330,1.5,1.5,11111222 
ENP,ioos.station.NOAA.NDBC:LBRF1:1,2010-10-02T09:00:00Z,25.4840,-81.1330,1.5,1.4,11111222 
ENP,ioos.station.NOAA.NDBC:LBRF1:1,2010-10-02T10:00:00Z,25.4840,-81.1330,1.5,1.4,11111222 
ENP,ioos.station.NOAA.NDBC:LBRF1:1,2010-10-02T11:00:00Z,25.4840,-81.1330,1.5,12.7,11111222 
ENP,ioos.station.NOAA.NDBC:LBRF1:1,2010-10-02T12:00:00Z,25.4840,-81.1330,1.5,12.0,11111222 
ENP,ioos.station.NOAA.NDBC:LBRF1:1,2010-10-02T13:00:00Z,25.4840,-81.1330,1.5,20.2,11111222 
ENP,ioos.station.NOAA.NDBC:LBRF1:1,2010-10-02T14:00:00Z,25.4840,-81.1330,1.5,26.4,11111222 
ENP,ioos.station.NOAA.NDBC:LBRF1:1,2010-10-02T15:00:00Z,25.4840,-81.1330,1.5,27.9,11111222 
ENP,ioos.station.NOAA.NDBC:LBRF1:1,2010-10-02T16:00:00Z,25.4840,-81.1330,1.5,26.3,11111222 
ENP,ioos.station.NOAA.NDBC:LBRF1:1,2010-10-02T18:00:00Z,25.4840,-81.1330,1.5,11.5,11111222 
ENP,ioos.station.NOAA.NDBC:LBRF1:1,2010-10-02T19:00:00Z,25.4840,-81.1330,1.5,6.6,11111222 
ENP,ioos.station.NOAA.NDBC:LBRF1:1,2010-10-02T20:00:00Z,25.4840,-81.1330,1.5,2.3,11111222 
ENP,ioos.station.NOAA.NDBC:LBRF1:1,2010-10-02T21:00:00Z,25.4840,-81.1330,1.5,1.4,11111222 
ENP,ioos.station.NOAA.NDBC:LBRF1:1,2010-10-02T23:00:00Z,25.4840,-81.1330,1.5,1.2,11111222 
ENP,ioos.station.NOAA.NDBC:LBRF1:1,2010-10-03T00:00:00Z,25.4840,-81.1330,1.5,1.3,11111222 
ENP,ioos.station.NOAA.NDBC:LBRF1:1,2010-10-03T01:00:00Z,25.4840,-81.1330,1.5,1.5,11111222 
ENP,ioos.station.NOAA.NDBC:LBRF1:1,2010-10-03T02:00:00Z,25.4840,-81.1330,1.5,5.3,11111222 
ENP,ioos.station.NOAA.NDBC:LBRF1:1,2010-10-03T03:00:00Z,25.4840,-81.1330,1.5,11.2,11111222 
ENP,ioos.station.NOAA.NDBC:LBRF1:1,2010-10-03T04:00:00Z,25.4840,-81.1330,1.5,16.2,11111222 
ENP,ioos.station.NOAA.NDBC:LBRF1:1,2010-10-03T05:00:00Z,25.4840,-81.1330,1.5,17.3,11111222 
ENP,ioos.station.NOAA.NDBC:LBRF1:1,2010-10-03T06:00:00Z,25.4840,-81.1330,1.5,14.5,11111222 
ENP,ioos.station.NOAA.NDBC:LBRF1:1,2010-10-03T07:00:00Z,25.4840,-81.1330,1.5,8.3,11111222 
ENP,ioos.station.NOAA.NDBC:LBRF1:1,2010-10-03T08:00:00Z,25.4840,-81.1330,1.5,3.6,11111222 
ENP,ioos.station.NOAA.NDBC:LBRF1:1,2010-10-03T10:00:00Z,25.4840,-81.1330,1.5,1.5,11111222 
ENP,ioos.station.NOAA.NDBC:LBRF1:1,2010-10-03T11:00:00Z,25.4840,-81.1330,1.5,1.4,11111222 
ENP,ioos.station.NOAA.NDBC:LBRF1:1,2010-10-03T12:00:00Z,25.4840,-81.1330,1.5,1.7,11111222 
ENP,ioos.station.NOAA.NDBC:LBRF1:1,2010-10-03T13:00:00Z,25.4840,-81.1330,1.5,11.3,11111222 
ENP,ioos.station.NOAA.NDBC:LBRF1:1,2010-10-03T14:00:00Z,25.4840,-81.1330,1.5,13.7,11111222 
ENP,ioos.station.NOAA.NDBC:LBRF1:1,2010-10-03T15:00:00Z,25.4840,-81.1330,1.5,19.9,11111222 
ENP,ioos.station.NOAA.NDBC:LBRF1:1,2010-10-03T16:00:00Z,25.4840,-81.1330,1.5,23.3,11111222 
ENP,ioos.station.NOAA.NDBC:LBRF1:1,2010-10-03T18:00:00Z,25.4840,-81.1330,1.5,18.4,11111222 
ENP,ioos.station.NOAA.NDBC:LBRF1:1,2010-10-03T19:00:00Z,25.4840,-81.1330,1.5,13.6,11111222 
ENP,ioos.station.NOAA.NDBC:LBRF1:1,2010-10-03T20:00:00Z,25.4840,-81.1330,1.5,9.7,11111222 
ENP,ioos.station.NOAA.NDBC:LBRF1:1,2010-10-03T21:00:00Z,25.4840,-81.1330,1.5,4.1,11111222 
ENP,ioos.station.NOAA.NDBC:LBRF1:1,2010-10-03T22:00:00Z,25.4840,-81.1330,1.5,1.7,11111222 
ENP,ioos.station.NOAA.NDBC:LBRF1:1,2010-10-03T23:00:00Z,25.4840,-81.1330,1.5,1.5,11111222 
ENP,ioos.station.NOAA.NDBC:LBRF1:1,2010-10-04T00:00:00Z,25.4840,-81.1330,1.5,1.3,11111222 
ENP,ioos.station.NOAA.NDBC:LBRF1:1,2010-10-04T01:00:00Z,25.4840,-81.1330,1.5,1.3,11111222 
ENP,ioos.station.NOAA.NDBC:LBRF1:1,2010-10-04T02:00:00Z,25.4840,-81.1330,1.5,1.5,11111222 
ENP,ioos.station.NOAA.NDBC:LBRF1:1,2010-10-04T03:00:00Z,25.4840,-81.1330,1.5,3.3,11111222 
ENP,ioos.station.NOAA.NDBC:LBRF1:1,2010-10-04T04:00:00Z,25.4840,-81.1330,1.5,11.3,11111222 
ENP,ioos.station.NOAA.NDBC:LBRF1:1,2010-10-04T05:00:00Z,25.4840,-81.1330,1.5,15.9,11111222 
ENP,ioos.station.NOAA.NDBC:LBRF1:1,2010-10-04T06:00:00Z,25.4840,-81.1330,1.5,16.6,11111222 
ENP,ioos.station.NOAA.NDBC:LBRF1:1,2010-10-04T07:00:00Z,25.4840,-81.1330,1.5,8.8,11111222 
ENP,ioos.station.NOAA.NDBC:LBRF1:1,2010-10-04T08:00:00Z,25.4840,-81.1330,1.5,3.3,11111222 
ENP,ioos.station.NOAA.NDBC:LBRF1:1,2010-10-04T09:00:00Z,25.4840,-81.1330,1.5,1.7,11111222 
ENP,ioos.station.NOAA.NDBC:LBRF1:1,2010-10-04T10:00:00Z,25.4840,-81.1330,1.5,1.5,11111222 
ENP,ioos.station.NOAA.NDBC:LBRF1:1,2010-10-04T11:00:00Z,25.4840,-81.1330,1.5,1.3,11111222 
ENP,ioos.station.NOAA.NDBC:LBRF1:1,2010-10-04T12:00:00Z,25.4840,-81.1330,1.5,1.3,11111222 
ENP,ioos.station.NOAA.NDBC:LBRF1:1,2010-10-04T13:00:00Z,25.4840,-81.1330,1.5,1.2,11111222 
ENP,ioos.station.NOAA.NDBC:LBRF1:1,2010-10-04T14:00:00Z,25.4840,-81.1330,1.5,1.3,11111222 
ENP,ioos.station.NOAA.NDBC:LBRF1:1,2010-10-04T15:00:00Z,25.4840,-81.1330,1.5,2.2,11111222 
ENP,ioos.station.NOAA.NDBC:LBRF1:1,2010-10-04T16:00:00Z,25.4840,-81.1330,1.5,7.7,11111222 
ENP,ioos.station.NOAA.NDBC:LBRF1:1,2010-10-04T18:00:00Z,25.4840,-81.1330,1.5,18.4,11111222 
ENP,ioos.station.NOAA.NDBC:LBRF1:1,2010-10-04T19:00:00Z,25.4840,-81.1330,1.5,16.4,11111222 
ENP,ioos.station.NOAA.NDBC:LBRF1:1,2010-10-04T20:00:00Z,25.4840,-81.1330,1.5,6.1,11111222 
ENP,ioos.station.NOAA.NDBC:LBRF1:1,2010-10-04T21:00:00Z,25.4840,-81.1330,1.5,2.3,11111222 
ENP,ioos.station.NOAA.NDBC:LBRF1:1,2010-10-04T22:00:00Z,25.4840,-81.1330,1.5,1.5,11111222 
ENP,ioos.station.NOAA.NDBC:LBRF1:1,2010-10-04T23:00:00Z,25.4840,-81.1330,1.5,1.3,11111222 
ENP,ioos.station.NOAA.NDBC:LBRF1:1,2010-10-05T00:00:00Z,25.4840,-81.1330,1.5,1.3,11111222 
ENP,ioos.station.NOAA.NDBC:LBRF1:1,2010-10-05T02:00:00Z,25.4840,-81.1330,1.5,1.2,11111222 
ENP,ioos.station.NOAA.NDBC:LBRF1:1,2010-10-05T03:00:00Z,25.4840,-81.1330,1.5,1.3,11111222 
ENP,ioos.station.NOAA.NDBC:LBRF1:1,2010-10-05T04:00:00Z,25.4840,-81.1330,1.5,1.8,11111222 
ENP,ioos.station.NOAA.NDBC:LBRF1:1,2010-10-05T05:00:00Z,25.4840,-81.1330,1.5,5.6,11111222 
ENP,ioos.station.NOAA.NDBC:LBRF1:1,2010-10-05T06:00:00Z,25.4840,-81.1330,1.5,9.5,11111222 
ENP,ioos.station.NOAA.NDBC:LBRF1:1,2010-10-05T07:00:00Z,25.4840,-81.1330,1.5,6.6,11111222 
ENP,ioos.station.NOAA.NDBC:LBRF1:1,2010-10-05T08:00:00Z,25.4840,-81.1330,1.5,2.1,11111222 
ENP,ioos.station.NOAA.NDBC:LBRF1:1,2010-10-05T09:00:00Z,25.4840,-81.1330,1.5,1.5,11111222 
ENP,ioos.station.NOAA.NDBC:LBRF1:1,2010-10-05T10:00:00Z,25.4840,-81.1330,1.5,1.4,11111222 
ENP,ioos.station.NOAA.NDBC:LBRF1:1,2010-10-05T11:00:00Z,25.4840,-81.1330,1.5,1.3,11111222 
ENP,ioos.station.NOAA.NDBC:LBRF1:1,2010-10-05T12:00:00Z,25.4840,-81.1330,1.5,1.2,11111222 
ENP,ioos.station.NOAA.NDBC:LBRF1:1,2010-10-05T13:00:00Z,25.4840,-81.1330,1.5,1.1,11111222 
ENP,ioos.station.NOAA.NDBC:LBRF1:1,2010-10-05T14:00:00Z,25.4840,-81.1330,1.5,1.1,11111222 
ENP,ioos.station.NOAA.NDBC:LBRF1:1,2010-10-05T15:00:00Z,25.4840,-81.1330,1.5,1.3,11111222 
ENP,ioos.station.NOAA.NDBC:LBRF1:1,2010-10-05T16:00:00Z,25.4840,-81.1330,1.5,2.6,11111222 
ENP,ioos.station.NOAA.NDBC:LBRF1:1,2010-10-05T18:00:00Z,25.4840,-81.1330,1.5,19.1,11111222 
ENP,ioos.station.NOAA.NDBC:LBRF1:1,2010-10-05T19:00:00Z,25.4840,-81.1330,1.5,20.2,11111222 
ENP,ioos.station.NOAA.NDBC:LBRF1:1,2010-10-05T20:00:00Z,25.4840,-81.1330,1.5,15.1,11111222 
ENP,ioos.station.NOAA.NDBC:LBRF1:1,2010-10-05T21:00:00Z,25.4840,-81.1330,1.5,8.5,11111222 
ENP,ioos.station.NOAA.NDBC:LBRF1:1,2010-10-05T22:00:00Z,25.4840,-81.1330,1.5,2.9,11111222 
ENP,ioos.station.NOAA.NDBC:LBRF1:1,2010-10-05T23:00:00Z,25.4840,-81.1330,1.5,1.7,11111222 
ENP,ioos.station.NOAA.NDBC:LBRF1:1,2010-10-06T00:00:00Z,25.4840,-81.1330,1.5,1.4,11111222 
ENP,ioos.station.NOAA.NDBC:LBRF1:1,2010-10-06T01:00:00Z,25.4840,-81.1330,1.5,1.3,11111222 
ENP,ioos.station.NOAA.NDBC:LBRF1:1,2010-10-06T02:00:00Z,25.4840,-81.1330,1.5,1.2,11111222 
ENP,ioos.station.NOAA.NDBC:LBRF1:1,2010-10-06T03:00:00Z,25.4840,-81.1330,1.5,1.4,11111222 
ENP,ioos.station.NOAA.NDBC:LBRF1:1,2010-10-06T04:00:00Z,25.4840,-81.1330,1.5,2.2,11111222 
ENP,ioos.station.NOAA.NDBC:LBRF1:1,2010-10-06T05:00:00Z,25.4840,-81.1330,1.5,13.0,11111222 
ENP,ioos.station.NOAA.NDBC:LBRF1:1,2010-10-06T06:00:00Z,25.4840,-81.1330,1.5,19.1,11111222 
ENP,ioos.station.NOAA.NDBC:LBRF1:1,2010-10-06T07:00:00Z,25.4840,-81.1330,1.5,20.1,11111222 
ENP,ioos.station.NOAA.NDBC:LBRF1:1,2010-10-06T08:00:00Z,25.4840,-81.1330,1.5,15.3,11111222 
ENP,ioos.station.NOAA.NDBC:LBRF1:1,2010-10-06T09:00:00Z,25.4840,-81.1330,1.5,8.8,11111222 
ENP,ioos.station.NOAA.NDBC:LBRF1:1,2010-10-06T10:00:00Z,25.4840,-81.1330,1.5,2.6,11111222 
ENP,ioos.station.NOAA.NDBC:LBRF1:1,2010-10-06T11:00:00Z,25.4840,-81.1330,1.5,1.7,11111222 
ENP,ioos.station.NOAA.NDBC:LBRF1:1,2010-10-06T12:00:00Z,25.4840,-81.1330,1.5,1.4,11111222 
ENP,ioos.station.NOAA.NDBC:LBRF1:1,2010-10-06T13:00:00Z,25.4840,-81.1330,1.5,1.3,11111222 
ENP,ioos.station.NOAA.NDBC:LBRF1:1,2010-10-06T14:00:00Z,25.4840,-81.1330,1.5,1.2,11111222 
ENP,ioos.station.NOAA.NDBC:LBRF1:1,2010-10-06T15:00:00Z,25.4840,-81.1330,1.5,1.4,11111222 
ENP,ioos.station.NOAA.NDBC:LBRF1:1,2010-10-06T16:00:00Z,25.4840,-81.1330,1.5,1.7,11111222 
ENP,ioos.station.NOAA.NDBC:LBRF1:1,2010-10-06T17:00:00Z,25.4840,-81.1330,1.5,6.3,11111222 
ENP,ioos.station.NOAA.NDBC:LBRF1:1,2010-10-06T18:00:00Z,25.4840,-81.1330,1.5,17.6,11111222 
ENP,ioos.station.NOAA.NDBC:LBRF1:1,2010-10-06T19:00:00Z,25.4840,-81.1330,1.5,20.8,11111222 
ENP,ioos.station.NOAA.NDBC:LBRF1:1,2010-10-06T20:00:00Z,25.4840,-81.1330,1.5,20.8,11111222 
ENP,ioos.station.NOAA.NDBC:LBRF1:1,2010-10-06T21:00:00Z,25.4840,-81.1330,1.5,14.8,11111222 
ENP,ioos.station.NOAA.NDBC:LBRF1:1,2010-10-06T22:00:00Z,25.4840,-81.1330,1.5,7.5,11111222 
ENP,ioos.station.NOAA.NDBC:LBRF1:1,2010-10-06T23:00:00Z,25.4840,-81.1330,1.5,2.2,11111222 
ENP,ioos.station.NOAA.NDBC:LBRF1:1,2010-10-07T00:00:00Z,25.4840,-81.1330,1.5,1.6,11111222 
ENP,ioos.station.NOAA.NDBC:LBRF1:1,2010-10-07T02:00:00Z,25.4840,-81.1330,1.5,1.3,11111222 
ENP,ioos.station.NOAA.NDBC:LBRF1:1,2010-10-07T03:00:00Z,25.4840,-81.1330,1.5,1.4,11111222 
ENP,ioos.station.NOAA.NDBC:LBRF1:1,2010-10-07T04:00:00Z,25.4840,-81.1330,1.5,1.8,11111222 
ENP,ioos.station.NOAA.NDBC:LBRF1:1,2010-10-07T05:00:00Z,25.4840,-81.1330,1.5,11.3,11111222 
ENP,ioos.station.NOAA.NDBC:LBRF1:1,2010-10-07T06:00:00Z,25.4840,-81.1330,1.5,19.7,11111222 
ENP,ioos.station.NOAA.NDBC:LBRF1:1,2010-10-07T07:00:00Z,25.4840,-81.1330,1.5,22.2,11111222 
ENP,ioos.station.NOAA.NDBC:LBRF1:1,2010-10-07T08:00:00Z,25.4840,-81.1330,1.5,22.1,11111222 
ENP,ioos.station.NOAA.NDBC:LBRF1:1,2010-10-07T09:00:00Z,25.4840,-81.1330,1.5,18.8,11111222 
ENP,ioos.station.NOAA.NDBC:LBRF1:1,2010-10-07T10:00:00Z,25.4840,-81.1330,1.5,13.0,11111222 
ENP,ioos.station.NOAA.NDBC:LBRF1:1,2010-10-07T11:00:00Z,25.4840,-81.1330,1.5,4.3,11111222 
ENP,ioos.station.NOAA.NDBC:LBRF1:1,2010-10-07T12:00:00Z,25.4840,-81.1330,1.5,1.9,11111222 
ENP,ioos.station.NOAA.NDBC:LBRF1:1,2010-10-07T13:00:00Z,25.4840,-81.1330,1.5,1.5,11111222 
ENP,ioos.station.NOAA.NDBC:LBRF1:1,2010-10-07T15:00:00Z,25.4840,-81.1330,1.5,1.3,11111222 
ENP,ioos.station.NOAA.NDBC:LBRF1:1,2010-10-07T16:00:00Z,25.4840,-81.1330,1.5,1.4,11111222 
ENP,ioos.station.NOAA.NDBC:LBRF1:1,2010-10-07T18:00:00Z,25.4840,-81.1330,1.5,15.3,11111222 
ENP,ioos.station.NOAA.NDBC:LBRF1:1,2010-10-07T19:00:00Z,25.4840,-81.1330,1.5,24.6,11111222 
ENP,ioos.station.NOAA.NDBC:LBRF1:1,2010-10-07T20:00:00Z,25.4840,-81.1330,1.5,27.1,11111222 
ENP,ioos.station.NOAA.NDBC:LBRF1:1,2010-10-07T21:00:00Z,25.4840,-81.1330,1.5,27.1,11111222 
ENP,ioos.station.NOAA.NDBC:LBRF1:1,2010-10-07T22:00:00Z,25.4840,-81.1330,1.5,26.1,11111222 
ENP,ioos.station.NOAA.NDBC:LBRF1:1,2010-10-07T23:00:00Z,25.4840,-81.1330,1.5,21.2,11111222 
ENP,ioos.station.NOAA.NDBC:LBRF1:1,2010-10-08T01:00:00Z,25.4840,-81.1330,1.5,7.8,11111222 
ENP,ioos.station.NOAA.NDBC:LBRF1:1,2010-10-08T02:00:00Z,25.4840,-81.1330,1.5,2.7,11111222 
ENP,ioos.station.NOAA.NDBC:LBRF1:1,2010-10-08T03:00:00Z,25.4840,-81.1330,1.5,3.8,11111222 
ENP,ioos.station.NOAA.NDBC:LBRF1:1,2010-10-08T04:00:00Z,25.4840,-81.1330,1.5,14.0,11111222 
ENP,ioos.station.NOAA.NDBC:LBRF1:1,2010-10-08T05:00:00Z,25.4840,-81.1330,1.5,22.5,11111222 
ENP,ioos.station.NOAA.NDBC:LBRF1:1,2010-10-08T06:00:00Z,25.4840,-81.1330,1.5,27.3,11111222 
ENP,ioos.station.NOAA.NDBC:LBRF1:1,2010-10-08T07:00:00Z,25.4840,-81.1330,1.5,29.2,11111222 
ENP,ioos.station.NOAA.NDBC:LBRF1:1,2010-10-08T08:00:00Z,25.4840,-81.1330,1.5,29.6,11111222 
ENP,ioos.station.NOAA.NDBC:LBRF1:1,2010-10-08T09:00:00Z,25.4840,-81.1330,1.5,29.6,11111222 
ENP,ioos.station.NOAA.NDBC:LBRF1:1,2010-10-08T10:00:00Z,25.4840,-81.1330,1.5,29.1,11111222 
ENP,ioos.station.NOAA.NDBC:LBRF1:1,2010-10-08T11:00:00Z,25.4840,-81.1330,1.5,26.3,11111222 
ENP,ioos.station.NOAA.NDBC:LBRF1:1,2010-10-08T12:00:00Z,25.4840,-81.1330,1.5,24.1,11111222 
ENP,ioos.station.NOAA.NDBC:LBRF1:1,2010-10-08T13:00:00Z,25.4840,-81.1330,1.5,18.3,11111222 
ENP,ioos.station.NOAA.NDBC:LBRF1:1,2010-10-08T14:00:00Z,25.4840,-81.1330,1.5,10.6,11111222 
ENP,ioos.station.NOAA.NDBC:LBRF1:1,2010-10-08T15:00:00Z,25.4840,-81.1330,1.5,6.5,11111222 
ENP,ioos.station.NOAA.NDBC:LBRF1:1,2010-10-08T16:00:00Z,25.4840,-81.1330,1.5,6.0,11111222 
ENP,ioos.station.NOAA.NDBC:LBRF1:1,2010-10-08T18:00:00Z,25.4840,-81.1330,1.5,21.1,11111222 
ENP,ioos.station.NOAA.NDBC:LBRF1:1,2010-10-08T19:00:00Z,25.4840,-81.1330,1.5,27.0,11111222 
ENP,ioos.station.NOAA.NDBC:LBRF1:1,2010-10-08T20:00:00Z,25.4840,-81.1330,1.5,29.5,11111222 
ENP,ioos.station.NOAA.NDBC:LBRF1:1,2010-10-08T21:00:00Z,25.4840,-81.1330,1.5,30.1,11111222 
ENP,ioos.station.NOAA.NDBC:LBRF1:1,2010-10-08T22:00:00Z,25.4840,-81.1330,1.5,29.1,11111222 
ENP,ioos.station.NOAA.NDBC:LBRF1:1,2010-10-08T23:00:00Z,25.4840,-81.1330,1.5,29.4,11111222 
ENP,ioos.station.NOAA.NDBC:LBRF1:1,2010-10-09T00:00:00Z,25.4840,-81.1330,1.5,27.3,11111222 
ENP,ioos.station.NOAA.NDBC:LBRF1:1,2010-10-09T01:00:00Z,25.4840,-81.1330,1.5,25.7,11111222 
ENP,ioos.station.NOAA.NDBC:LBRF1:1,2010-10-09T02:00:00Z,25.4840,-81.1330,1.5,21.4,11111222 
ENP,ioos.station.NOAA.NDBC:LBRF1:1,2010-10-09T03:00:00Z,25.4840,-81.1330,1.5,18.5,11111222 
ENP,ioos.station.NOAA.NDBC:LBRF1:1,2010-10-09T04:00:00Z,25.4840,-81.1330,1.5,21.4,11111222 
ENP,ioos.station.NOAA.NDBC:LBRF1:1,2010-10-09T05:00:00Z,25.4840,-81.1330,1.5,25.6,11111222 
ENP,ioos.station.NOAA.NDBC:LBRF1:1,2010-10-09T06:00:00Z,25.4840,-81.1330,1.5,27.6,11111222 
ENP,ioos.station.NOAA.NDBC:LBRF1:1,2010-10-09T07:00:00Z,25.4840,-81.1330,1.5,30.4,11111222 
ENP,ioos.station.NOAA.NDBC:LBRF1:1,2010-10-09T08:00:00Z,25.4840,-81.1330,1.5,31.2,11111222 
ENP,ioos.station.NOAA.NDBC:LBRF1:1,2010-10-09T10:00:00Z,25.4840,-81.1330,1.5,30.9,11111222 
ENP,ioos.station.NOAA.NDBC:LBRF1:1,2010-10-09T11:00:00Z,25.4840,-81.1330,1.5,31.1,11111222 
ENP,ioos.station.NOAA.NDBC:LBRF1:1,2010-10-09T12:00:00Z,25.4840,-81.1330,1.5,29.3,11111222 
ENP,ioos.station.NOAA.NDBC:LBRF1:1,2010-10-09T13:00:00Z,25.4840,-81.1330,1.5,28.3,11111222 
ENP,ioos.station.NOAA.NDBC:LBRF1:1,2010-10-09T14:00:00Z,25.4840,-81.1330,1.5,24.7,11111222 
ENP,ioos.station.NOAA.NDBC:LBRF1:1,2010-10-09T15:00:00Z,25.4840,-81.1330,1.5,18.3,11111222 
ENP,ioos.station.NOAA.NDBC:LBRF1:1,2010-10-09T16:00:00Z,25.4840,-81.1330,1.5,14.0,11111222 
ENP,ioos.station.NOAA.NDBC:LBRF1:1,2010-10-09T18:00:00Z,25.4840,-81.1330,1.5,20.5,11111222 
ENP,ioos.station.NOAA.NDBC:LBRF1:1,2010-10-09T19:00:00Z,25.4840,-81.1330,1.5,28.3,11111222 
ENP,ioos.station.NOAA.NDBC:LBRF1:1,2010-10-09T20:00:00Z,25.4840,-81.1330,1.5,29.7,11111222 
ENP,ioos.station.NOAA.NDBC:LBRF1:1,2010-10-09T21:00:00Z,25.4840,-81.1330,1.5,31.2,11111222 
ENP,ioos.station.NOAA.NDBC:LBRF1:1,2010-10-09T22:00:00Z,25.4840,-81.1330,1.5,31.5,11111222 
ENP,ioos.station.NOAA.NDBC:LBRF1:1,2010-10-09T23:00:00Z,25.4840,-81.1330,1.5,31.4,11111222 
ENP,ioos.station.NOAA.NDBC:LBRF1:1,2010-10-10T00:00:00Z,25.4840,-81.1330,1.5,31.2,11111222 
ENP,ioos.station.NOAA.NDBC:LBRF1:1,2010-10-10T01:00:00Z,25.4840,-81.1330,1.5,29.1,11111222 
ENP,ioos.station.NOAA.NDBC:LBRF1:1,2010-10-10T02:00:00Z,25.4840,-81.1330,1.5,28.1,11111222 
ENP,ioos.station.NOAA.NDBC:LBRF1:1,2010-10-10T03:00:00Z,25.4840,-81.1330,1.5,25.5,11111222 
ENP,ioos.station.NOAA.NDBC:LBRF1:1,2010-10-10T04:00:00Z,25.4840,-81.1330,1.5,25.5,11111222 
ENP,ioos.station.NOAA.NDBC:LBRF1:1,2010-10-10T05:00:00Z,25.4840,-81.1330,1.5,27.8,11111222 
ENP,ioos.station.NOAA.NDBC:LBRF1:1,2010-10-10T06:00:00Z,25.4840,-81.1330,1.5,29.9,11111222 
ENP,ioos.station.NOAA.NDBC:LBRF1:1,2010-10-10T07:00:00Z,25.4840,-81.1330,1.5,31.1,11111222 
ENP,ioos.station.NOAA.NDBC:LBRF1:1,2010-10-10T08:00:00Z,25.4840,-81.1330,1.5,32.5,11111222 
ENP,ioos.station.NOAA.NDBC:LBRF1:1,2010-10-10T09:00:00Z,25.4840,-81.1330,1.5,32.8,11111222 
ENP,ioos.station.NOAA.NDBC:LBRF1:1,2010-10-10T10:00:00Z,25.4840,-81.1330,1.5,32.9,11111222 
ENP,ioos.station.NOAA.NDBC:LBRF1:1,2010-10-10T11:00:00Z,25.4840,-81.1330,1.5,33.3,11111222 
ENP,ioos.station.NOAA.NDBC:LBRF1:1,2010-10-10T12:00:00Z,25.4840,-81.1330,1.5,32.4,11111222 
ENP,ioos.station.NOAA.NDBC:LBRF1:1,2010-10-10T13:00:00Z,25.4840,-81.1330,1.5,31.1,11111222 
ENP,ioos.station.NOAA.NDBC:LBRF1:1,2010-10-10T14:00:00Z,25.4840,-81.1330,1.5,30.2,11111222 
ENP,ioos.station.NOAA.NDBC:LBRF1:1,2010-10-10T15:00:00Z,25.4840,-81.1330,1.5,27.6,11111222 
ENP,ioos.station.NOAA.NDBC:LBRF1:1,2010-10-10T16:00:00Z,25.4840,-81.1330,1.5,20.8,11111222 
ENP,ioos.station.NOAA.NDBC:LBRF1:1,2010-10-10T18:00:00Z,25.4840,-81.1330,1.5,18.0,11111222 
ENP,ioos.station.NOAA.NDBC:LBRF1:1,2010-10-10T19:00:00Z,25.4840,-81.1330,1.5,21.4,11111222 
ENP,ioos.station.NOAA.NDBC:LBRF1:1,2010-10-10T20:00:00Z,25.4840,-81.1330,1.5,27.7,11111222 
ENP,ioos.station.NOAA.NDBC:LBRF1:1,2010-10-10T21:00:00Z,25.4840,-81.1330,1.5,30.6,11111222 
ENP,ioos.station.NOAA.NDBC:LBRF1:1,2010-10-10T22:00:00Z,25.4840,-81.1330,1.5,31.1,11111222 
ENP,ioos.station.NOAA.NDBC:LBRF1:1,2010-10-10T23:00:00Z,25.4840,-81.1330,1.5,31.3,11111222 
ENP,ioos.station.NOAA.NDBC:LBRF1:1,2010-10-11T00:00:00Z,25.4840,-81.1330,1.5,30.8,11111222 
ENP,ioos.station.NOAA.NDBC:LBRF1:1,2010-10-11T02:00:00Z,25.4840,-81.1330,1.5,27.3,11111222 
ENP,ioos.station.NOAA.NDBC:LBRF1:1,2010-10-11T03:00:00Z,25.4840,-81.1330,1.5,22.0,11111222 
ENP,ioos.station.NOAA.NDBC:LBRF1:1,2010-10-11T04:00:00Z,25.4840,-81.1330,1.5,18.4,11111222 
ENP,ioos.station.NOAA.NDBC:LBRF1:1,2010-10-11T05:00:00Z,25.4840,-81.1330,1.5,18.8,11111222 
ENP,ioos.station.NOAA.NDBC:LBRF1:1,2010-10-11T06:00:00Z,25.4840,-81.1330,1.5,23.8,11111222 
ENP,ioos.station.NOAA.NDBC:LBRF1:1,2010-10-11T07:00:00Z,25.4840,-81.1330,1.5,28.5,11111222 
ENP,ioos.station.NOAA.NDBC:LBRF1:1,2010-10-11T08:00:00Z,25.4840,-81.1330,1.5,30.7,11111222 
ENP,ioos.station.NOAA.NDBC:LBRF1:1,2010-10-11T09:00:00Z,25.4840,-81.1330,1.5,32.1,11111222 
ENP,ioos.station.NOAA.NDBC:LBRF1:1,2010-10-11T10:00:00Z,25.4840,-81.1330,1.5,32.4,11111222 
ENP,ioos.station.NOAA.NDBC:LBRF1:1,2010-10-11T11:00:00Z,25.4840,-81.1330,1.5,32.4,11111222 
ENP,ioos.station.NOAA.NDBC:LBRF1:1,2010-10-11T12:00:00Z,25.4840,-81.1330,1.5,32.1,11111222 
ENP,ioos.station.NOAA.NDBC:LBRF1:1,2010-10-11T13:00:00Z,25.4840,-81.1330,1.5,30.4,11111222 
ENP,ioos.station.NOAA.NDBC:LBRF1:1,2010-10-11T14:00:00Z,25.4840,-81.1330,1.5,29.1,11111222 
ENP,ioos.station.NOAA.NDBC:LBRF1:1,2010-10-11T15:00:00Z,25.4840,-81.1330,1.5,25.9,11111222 
ENP,ioos.station.NOAA.NDBC:LBRF1:1,2010-10-11T16:00:00Z,25.4840,-81.1330,1.5,20.2,11111222 
ENP,ioos.station.NOAA.NDBC:LBRF1:1,2010-10-11T18:00:00Z,25.4840,-81.1330,1.5,14.1,11111222 
ENP,ioos.station.NOAA.NDBC:LBRF1:1,2010-10-11T19:00:00Z,25.4840,-81.1330,1.5,14.5,11111222 
ENP,ioos.station.NOAA.NDBC:LBRF1:1,2010-10-11T20:00:00Z,25.4840,-81.1330,1.5,17.5,11111222 
ENP,ioos.station.NOAA.NDBC:LBRF1:1,2010-10-11T21:00:00Z,25.4840,-81.1330,1.5,23.4,11111222 
ENP,ioos.station.NOAA.NDBC:LBRF1:1,2010-10-11T22:00:00Z,25.4840,-81.1330,1.5,28.8,11111222 
ENP,ioos.station.NOAA.NDBC:LBRF1:1,2010-10-11T23:00:00Z,25.4840,-81.1330,1.5,30.0,11111222 
ENP,ioos.station.NOAA.NDBC:LBRF1:1,2010-10-12T00:00:00Z,25.4840,-81.1330,1.5,29.8,11111222 
ENP,ioos.station.NOAA.NDBC:LBRF1:1,2010-10-12T01:00:00Z,25.4840,-81.1330,1.5,25.6,11111222 
ENP,ioos.station.NOAA.NDBC:LBRF1:1,2010-10-12T02:00:00Z,25.4840,-81.1330,1.5,21.9,11111222 
ENP,ioos.station.NOAA.NDBC:LBRF1:1,2010-10-12T03:00:00Z,25.4840,-81.1330,1.5,17.5,11111222 
ENP,ioos.station.NOAA.NDBC:LBRF1:1,2010-10-12T04:00:00Z,25.4840,-81.1330,1.5,13.9,11111222 
ENP,ioos.station.NOAA.NDBC:LBRF1:1,2010-10-12T05:00:00Z,25.4840,-81.1330,1.5,13.0,11111222 
ENP,ioos.station.NOAA.NDBC:LBRF1:1,2010-10-12T06:00:00Z,25.4840,-81.1330,1.5,13.3,11111222 
ENP,ioos.station.NOAA.NDBC:LBRF1:1,2010-10-12T07:00:00Z,25.4840,-81.1330,1.5,17.5,11111222 
ENP,ioos.station.NOAA.NDBC:LBRF1:1,2010-10-12T08:00:00Z,25.4840,-81.1330,1.5,23.5,11111222 
ENP,ioos.station.NOAA.NDBC:LBRF1:1,2010-10-12T09:00:00Z,25.4840,-81.1330,1.5,29.1,11111222 
ENP,ioos.station.NOAA.NDBC:LBRF1:1,2010-10-12T10:00:00Z,25.4840,-81.1330,1.5,30.6,11111222 
ENP,ioos.station.NOAA.NDBC:LBRF1:1,2010-10-12T11:00:00Z,25.4840,-81.1330,1.5,30.8,11111222 
ENP,ioos.station.NOAA.NDBC:LBRF1:1,2010-10-12T12:00:00Z,25.4840,-81.1330,1.5,30.2,11111222 
ENP,ioos.station.NOAA.NDBC:LBRF1:1,2010-10-12T13:00:00Z,25.4840,-81.1330,1.5,27.6,11111222 
ENP,ioos.station.NOAA.NDBC:LBRF1:1,2010-10-12T14:00:00Z,25.4840,-81.1330,1.5,24.4,11111222 
ENP,ioos.station.NOAA.NDBC:LBRF1:1,2010-10-12T15:00:00Z,25.4840,-81.1330,1.5,18.3,11111222 